User: anonymous   Login
Location: Vancouver
(49.2500°N, 123.1330°W)
Time: 18:56:20
(UTC-07:00)
Language:

Cosmos 1408 Rocket - Orbit

View from above orbital plane
View from above orbital plane
View from above satellite
View from above satellite

Ground track
Ground track

The orbit data is extracted from the following two-line orbital elements,

1 13553U 82092B   15085.80329190  .00000613  00000-0  70878-4 0  9993
2 13553 082.5661 271.7611 0020826 208.8408 279.8839 14.83827711756400
Epoch (UTC): 26 March 2015 19:16:44
Eccentricity: 0.0020826
inclination: 82.5661°
perigee height: 603 km
apogee height: 632 km
right ascension of ascending node: 271.7611°
argument of perigee: 208.8408°
revolutions per day: 14.83827711
mean anomaly at epoch: 279.8839°
orbit number at epoch: 75640

The dashed part of the orbit path shows where the satellite is in the earth's shadow,  

DLR